Starlink 31681

operational
NORAD ID: 59746 Int'l Des: 2024-090 Owner: SPXS Country: US Constellation: starlink
LEOCIRCULAR

About Starlink 31681

Description loading...

Live Position

Loading 3D Globe...

Upcoming Passes

Altitude History

Altitude vs Time

uPlot chart will show altitude changes over time

Two-Line Element Set

1 59746U 24090S 25304.70334600 -.00000956 00000-0 -25242-4 0 9994
2 59746 43.0010 184.9953 0001364 278.0927 81.9770 15.27549311 83796
Epoch: Oct 31, 2025 • Age: 20 hours

Current Status

Altitude 494.9 km
Velocity 7.62 km/s
Sub-Earth Point -41.33°S, 163.41°W
Launch Date May 13, 2024
Age 1.4 years
Type internet

Technical Details

Classification Payload
Mass 730.00 kg
Dry Mass 700.00 kg
Total Mass 730.00 kg
Length 0.30 m
Diameter 4.10 m
Span 29.00 m
Shape Box + pan
Manufacturer SPXS
Bus Type Starlink V2M
Phase Status In Orbit
Owner/State SPXS/US

Large Constellations

Loading constellations...